#timestamp,LO_Frequency,Hit,StdDev 
1556676015.4,286047001.2,N
1556676035.3,286047000.3,N
1556676055.1,286047002.1,N
1556676075.9,286047004.0,N
1556676095.7,286047003.4,N
1556676115.5,286047005.8,N
1556676135.4,286047003.4,N
1556676155.2,286047003.6,N
1556676175.0,286047004.4,N
1556676175.9,286047004.4,N
1556676195.8,286047000.4,N
1556676215.6,286046998.8,N
1556676235.5,286046999.2,N
1556676255.3,286046999.0,N
1556676275.1,286046999.0,N
1556676295.9,286046999.5,N
1556676315.7,286046996.6,N
1556676335.5,286046997.0,N
1556676355.4,286046999.1,N
1556676375.2,286046999.0,N
1556676395.1,286047000.6,N
1556676396.0,286047000.6,N
1556676415.8,286046998.9,N
1556676435.6,286046999.6,N
1556676455.5,286046995.1,N
1556676475.3,286046996.1,N
1556676495.1,286046996.4,N
1556676515.9,286046994.5,N
1556676535.7,286046996.0,N
1556676555.6,286046993.9,N
1556676575.4,286046994.4,N
1556676595.2,286046992.4,N
1556676615.1,286046990.4,N
1556676616.0,286046990.4,N
1556676635.8,286046991.0,N
1556676655.6,286046991.5,N
1556676675.5,286046992.8,N
1556676695.3,286046990.7,N
1556676715.2,286046990.9,N
1556676735.9,286046991.0,N
1556676755.7,286046991.3,N
1556676775.6,286046990.7,N
1556676795.4,286046990.1,N
1556676815.2,286046988.6,Y
1556676835.1,286046996.4,P
1556676836.0,286046996.4,P
1556676855.8,286046997.5,P
1556676875.7,286046996.3,Y
1556676895.5,286046998.1,P
1556676915.3,286047000.5,N
1556676935.2,286047000.1,N
1556676955.0,286047002.1,N
1556676955.9,286047002.1,N
1556676975.8,286047002.5,N
1556676995.6,286046999.7,N
1556677015.4,286047002.7,N
1556677035.3,286047000.4,N
1556677055.1,286047011.9,Y
1556677075.8,286047002.2,P
1556677095.7,286047000.2,N
1556677115.5,286047002.2,N
1556677135.4,286047002.5,N
1556677155.2,286047002.3,N
1556677175.0,286046999.9,N
1556677175.9,286046999.9,N
1556677195.8,286046998.8,N
1556677215.6,286046999.8,N
1556677235.5,286047001.9,N
1556677255.3,286047001.5,N
1556677275.1,286047004.2,Y
1556677295.9,286047003.9,P
1556677315.7,286047004.2,N
1556677335.5,286047001.6,N
1556677355.4,286047000.0,N
1556677375.2,286047004.0,N
1556677395.1,286047003.8,N
1556677396.0,286047003.8,N
1556677415.8,286047003.7,N
1556677435.6,286047002.7,N
1556677455.5,286046999.8,N
1556677475.3,286046998.7,N
1556677495.1,286046999.3,N
1556677515.9,286046998.7,N
1556677535.7,286047001.2,N
1556677555.6,286046996.9,N
1556677575.4,286046999.3,N
1556677595.2,286046998.9,N
1556677615.1,286047000.8,N
1556677616.0,286047000.8,N
1556677635.8,286047001.8,N
1556677655.6,286047000.1,N
1556677675.5,286047000.3,N
1556677695.3,286047002.4,N
1556677715.2,286047002.6,N
1556677735.9,286047001.9,N
1556677755.7,286047002.5,N
1556677775.6,286047002.5,N
1556677795.4,286047000.3,N
1556677815.2,286047000.5,N
1556677835.1,286046998.2,N
1556677836.0,286046998.2,N
1556677855.8,286046998.3,N
1556677875.7,286047000.2,N
1556677895.5,286046999.9,N
1556677915.3,286047000.3,N
1556677935.2,286047000.6,N
1556677955.0,286046999.7,N
1556677955.9,286046999.7,N
1556677975.7,286046998.6,N
1556677995.6,286046998.3,N
1556678015.4,286046999.1,N
1556678035.3,286046998.5,N
1556678055.1,286046999.8,N
1556678075.8,286047000.4,N
1556678095.7,286047000.3,N
1556678115.5,286047000.7,N
1556678135.4,286047002.8,N
1556678155.2,286047002.7,N
1556678175.0,286046999.9,N
1556678175.9,286046999.9,N
1556678195.8,286046999.8,N
1556678215.6,286046999.9,N
1556678235.4,286046999.9,N
1556678255.3,286047000.8,N
1556678275.1,286047000.6,N
1556678295.9,286047000.6,N
1556678315.7,286047000.7,N
1556678335.5,286047001.0,N
1556678355.4,286047000.6,N
1556678375.2,286047002.4,N
1556678395.0,286047002.5,N
1556678395.9,286047002.5,N
1556678415.8,286047002.4,N
1556678435.6,286046999.8,N
1556678455.5,286047000.1,N
1556678475.3,286047001.0,N
1556678495.1,286046998.3,N
1556678515.9,286046998.6,N
1556678535.7,286046996.5,N
1556678555.6,286047000.9,N
1556678575.4,286047001.6,N
1556678595.2,286047004.0,N
1556678615.1,286047003.4,N
1556678616.0,286047003.4,N
1556678635.8,286047005.2,Y
1556678655.6,286047004.9,P
1556678675.5,286047007.6,P
1556678695.3,286047006.8,N
1556678715.2,286047008.8,Y
1556678735.0,286046998.2,P
1556678735.9,286046998.2,N
1556678755.7,286046999.4,N
1556678775.6,286046996.8,N
1556678795.4,286046996.8,N
1556678815.3,286046995.5,N
1556678835.1,286046993.7,N
1556678836.0,286046993.7,N
1556678855.8,286046995.5,N
1556678875.7,286046995.7,N
1556678895.5,286047011.9,Y
1556678915.4,286046999.2,P
1556678935.2,286046997.1,N
1556678955.0,286046997.7,N
1556678955.9,286046997.7,N
1556678975.8,286046995.1,Y
1556678995.6,286046999.0,P
1556679015.5,286046997.2,P
1556679035.3,286046994.9,P
1556679055.1,286046997.0,N
1556679075.9,286046997.3,N
1556679095.7,286046998.9,N
1556679115.5,286046998.8,N
1556679135.4,286046996.5,N
1556679155.2,286046999.2,N
1556679175.1,286046998.2,N
1556679176.0,286046998.2,N
1556679195.8,286046999.9,N
1556679215.6,286047000.2,N
1556679235.5,286047002.1,N
1556679255.3,286047003.1,N
1556679275.1,286047003.2,N
1556679295.9,286047003.8,N
1556679315.7,286047003.1,N
1556679335.6,286047004.1,N
1556679355.4,286047002.9,N
1556679375.2,286047005.0,N
1556679395.1,286047007.5,N
1556679396.0,286047007.5,N
1556679415.8,286047006.7,N
1556679435.6,286047008.8,N
1556679455.5,286047008.7,N
1556679475.3,286047007.8,N
1556679495.2,286047010.5,N
1556679515.9,286047008.1,N
1556679535.7,286047009.9,N
1556679555.6,286047009.9,N
1556679575.4,286047009.4,N
1556679595.3,286047011.5,N
